Weather Roundup
Issued by NWS Springfield, MO

Home | Current Version | Previous Version | Text Only | Print | Product List | Glossary On
Versions: 1 2 3 4 5 6 7 8 9 10 11 12 13 14 15 16 17 18 19 20 21 22 23 24 25 26 27 28 29 30 31 32 33 34 35 36 37 38 39 40 41 42 43 44 45 46 47 48 49 50
000
NZUS99 KSGF 110407
HRRSGF

HOURLY WEATHER
NATIONAL WEATHER SERVICE SPRINGFIELD MO
1000 PM CST WED FEB 10 2016

......SGF CWA......

CITY           SKY/WX    TMP DP  RH WIND       PRES   REMARKS
SPRINGFIELD    CLEAR     37  20  50 SE10      29.96F WCI  30
JOPLIN         CLEAR     41  24  51 E10       29.94S
WEST PLAINS    CLEAR     29  10  45 E7        30.05F WCI  22
ROLLA          CLOUDY    23  17  78 E9        30.04S WCI  13
OSAGE BEACH    CLEAR     25  16  68 E7        30.05S WCI  17

......SURROUNDING SGF CWA......

CITY           SKY/WX    TMP DP  RH WIND       PRES   REMARKS
CHANUTE        CLEAR     37  27  67 N5        29.94S WCI  33
PARSONS        CLEAR     38  27  64 CALM      29.94R
COFFEYVILLE    CLEAR     35  27  72 N6        29.93R WCI  30
EMPORIA        CLEAR     41  29  62 NW8       29.96R
GROVE OK       CLEAR     36  28  75 CALM      29.94S
ROGERS AR      CLEAR     44  27  51 S6        29.95S
SILOAM SPRINGS CLEAR     46  25  42 SW6       29.96R
HARRISON AR    CLEAR     38  22  52 VRB6      29.97F WCI  33
NEAR YELLVILLE CLEAR     36  18  48 E3        30.00S

......KANSAS AND MISSOURI......

CITY           SKY/WX    TMP DP  RH WIND       PRES   REMARKS
KANSAS CTY INT CLOUDY    28  22  78 E14       30.02R WCI  17
DOWNTOWN KC    CLEAR     30  22  72 NE13      30.03R WCI  20
COLUMBIA       CLOUDY    23  19  85 E12       30.06F WCI  12
SEDALIA        PTCLDY    26  19  74 SE13      30.04F WCI  15
ST JOSEPH      CLOUDY    27  21  78 NE8       30.08R WCI  19
ST LOUIS       CLOUDY    24  18  77 SE5       30.16R WCI  18
SPIRIT OF STL  CLOUDY    23  19  85 E3        30.15R
KIRKSVILLE     CLOUDY    21  16  81 NE9       30.14R WCI  11
WICHITA        PTCLDY    50  30  46 N9        29.97R
TOPEKA         CLEAR     39  22  50 CALM      30.00R
OLATHE         CLEAR     34  19  54 E7        30.00R WCI  28

......TENNESSEE......

CITY           SKY/WX    TMP DP  RH WIND       PRES   REMARKS
MEMPHIS        CLEAR     36  18  48 E8        30.11F WCI  30
NASHVILLE      FLURRIES  26  19  74 CALM      30.21F

......ARKANSAS.......

CITY           SKY/WX    TMP DP  RH WIND       PRES   REMARKS
FAYETTEVILLE   CLEAR     45  30  55 S9        29.95F
FT SMITH       CLEAR     42  24  49 NE5       29.98F
LITTLE ROCK    CLEAR     40  25  55 SE5       30.04F

......OKLAHOMA.......

CITY           SKY/WX    TMP DP  RH WIND       PRES   REMARKS
TULSA          CLEAR     54  32  43 S3        29.91S
PONCA CITY     CLEAR     39  29  67 N6        29.94R WCI  35
MCALESTER      PTCLDY    58  32  37 S7        29.96F
OKLAHOMA CITY  CLEAR     54  30  40 SW12      29.94S

......IOWA............

CITY           SKY/WX    TMP DP  RH WIND       PRES   REMARKS
DES MOINES     CLOUDY    18  10  71 NE6       30.18R WCI  10
QUAD CITIES    PTCLDY    15   3  59 N6        30.19R WCI   6

......ILLINOIS........

CITY           SKY/WX    TMP DP  RH WIND       PRES   REMARKS
QUINCY         CLOUDY    20  15  81 NE9       30.16R WCI   9
CHICAGO        PTCLDY    11   1  64 NW5       30.16R WCI   3



USA.gov is the U.S. government's official web portal to all federal, state and local government web resources and services.